Location: WDG Pocking
(48.4011°N, 13.3247°E)
Time: 05:42:02
(UTC+01:00)

ISS - Pass Details

Date: 03 October 2023
Orbit: 415 x 417 km, 51.6° (Epoch: 05 December)

Event Time Altitude Azimuth Distance (km) Brightness Sun altitude
Rises 19:13:13 0° 290° (WNW) 2,363 1.7 -5.9°
Reaches altitude 10° 19:15:26 10° 280° (W) 1,494 0.8 -6.3°
Maximum altitude 19:18:28 32° 215° (SW) 738 -2.1 -6.8°
Drops below altitude 10° 19:21:22 11° 151° (SSE) 1,445 -1.3 -7.3°
Enters shadow 19:23:28 - 141° (SE) 2,257 -0.4 -7.6°
